Overview Statistics Trail Chart Weather Telemetry Raw packets
 

This is the latest recevied weather packets stored in our database for station/object Seibranz. If no packets are shown the sender has not sent any weather packets the latest 10 day(s).

<< 3 4 5 6 7 8 9 >>
Time Temp. Humidity Pressure Rain* Wind** Luminosity Snow
1788355930 22.78° C 55% 1019.8 hPa 0 mm - - -
1788354130 22.22° C 55% 1019.8 hPa 0 mm - - -
1788352330 22.22° C 57% 1020.1 hPa 0 mm - - -
1788350530 21.67° C 60% 1020.1 hPa 0 mm - - -
1788348731 22.22° C 65% 1020.3 hPa 0 mm - - -
1788346929 21.11° C 70% 1020.5 hPa 0 mm - - -
1788345130 20.56° C 70% 1020.9 hPa 0 mm - - -
1788343330 19.44° C 72% 1021.1 hPa 0 mm - - -
1788341530 20° C 71% 1021.1 hPa 0 mm - - -
1788339730 18.89° C 76% 1020.9 hPa 0 mm - - -
1788337930 17.78° C 78% 1020.7 hPa 0 mm - - -
1788336131 18.33° C 77% 1020.8 hPa 0 mm - - -
1788334330 16.67° C 79% 1020.7 hPa 0 mm - - -
1788332530 16.11° C 82% 1020.9 hPa 0 mm - - -
1788330729 15.56° C 83% 1020.9 hPa 0 mm - - -
1788328929 14.44° C 88% 1020.5 hPa 0 mm - - -
1788327130 11.11° C 92% 1020.7 hPa 0 mm - - -
1788325331 9.44° C 94% 1020.6 hPa 0 mm - - -
1788323529 7.78° C 94% 1020.3 hPa 0 mm - - -
1788321730 7.78° C 93% 1020.3 hPa 0 mm - - -
1788319930 7.78° C 93% 1020.2 hPa 0 mm - - -
1788318129 8.33° C 91% 1020.1 hPa 0 mm - - -
1788316330 10° C 91% 1020.3 hPa 0 mm - - -
1788314529 12.22° C 86% 1020.2 hPa 0 mm - - -
1788312729 11.11° C 91% 1020.6 hPa 0 mm - - -

* Rain since midnight (hover to see other rain measurements)
** Current wind speed in m/s (hover to see current wind gust speed)